Regional Weather Roundup
Issued by NWS

Home | Current Version | Previous Version | Graphics & Text | Print | Product List | Glossary Off
Versions: 1 2 3 4 5 6 7 8 9 10 11 12 13 14 15 16 17 18 19 20 21 22 23 24 25 26 27 28 29 30 31 32 33 34 35 36 37 38 39 40 41 42 43 44 45 46 47 48 49 50

000
ASUS43 KMPX 231410
RWRMN
WEATHER ROUNDUP FOR MINNESOTA
NATIONAL WEATHER SERVICE TWIN CITIES/CHANHASSEN MN
800 AM CST TUE JAN 23 2018


NOTE: "FAIR" INDICATES FEW OR NO CLOUDS BELOW 12,000 FEET WITH NO
SIGNIFICANT WEATHER AND/OR OBSTRUCTIONS TO VISIBILITY. N/A MEANS
CURRENT SKY AND/OR WEATHER CONDITIONS ARE NOT AVAILABLE.

MNZ060>063-068>070-231500-
   Twin Cities Metro

CITY           SKY/WX    TMP DP  RH WIND       PRES   REMARKS
TWIN CITIES    CLOUDY    19  14  81 N16       29.99R WCI   4
ST PAUL        CLOUDY    19  13  77 N10       30.00R WCI   7
CRYSTAL        CLOUDY    17   9  70 N13G22    29.99R WCI   4
BLAINE         CLOUDY    19  14  79 NW10      29.99R WCI   8
LAKEVILLE        N/A    N/A N/A N/A N14       29.98R
EDEN PRAIRIE   CLOUDY    19  13  77 N12       29.99R WCI   7
SOUTH ST PAUL  CLOUDY    19  14  79 NW10G17   29.98S WCI   8
LAKE ELMO      CLOUDY    19  14  79 N10       29.98S WCI   8
$$
MNZ001>005-007-008-013>017-022>024-027-028-231500-
   Northwest Minnesota

CITY           SKY/WX    TMP DP  RH WIND       PRES   REMARKS
BEMIDJI        CLOUDY    16  12  84 NE5       30.03S WCI   9
HALLOCK        CLOUDY    19  16  86 SE7       30.07S WCI  10
ROSEAU         CLOUDY    18  12  79 E6        30.07S WCI   9
WARROAD        CLOUDY    14  10  85 E6        30.08S WCI   5
THIEF RVR FALL FLURRIES  17  14  88 CALM      30.07R
CROOKSTON      CLOUDY    18  16  93 CALM      30.09R
FOSSTON        CLOUDY    16  12  86 CALM      30.05R
DETROIT LAKES  CLOUDY    19  18  93 NE3       30.04S
MOORHEAD       CLOUDY    19  14  79 CALM      30.08S
PARK RAPIDS    CLOUDY    18  12  77 N5        30.02R WCI  11
MAHNOMEN       CLOUDY    18  14  85 E3        30.04S
$$
MNZ006-009>011-018-025>026-231500-
   North Central Minnesota

CITY           SKY/WX    TMP DP  RH WIND       PRES   REMARKS
BAUDETTE       FAIR       6   3  87 E6        30.06R WCI  -4
FLAG ISLAND    CLOUDY    10   7  85 SE3       30.08R
INTL FALLS     FAIR      -2  -6  83 CALM      30.06S
WASKISH        FAIR       5   3  92 CALM      30.06S
BIG FORK       FAIR       0  -4  85 CALM      30.04R
LONGVILLE      FAIR       9   7  92 CALM      30.04R
GRAND RAPIDS   FAIR       4   0  83 N8        30.05R WCI  -9
CRANE LAKE     FAIR      -9 -13  84 CALM      30.08R
ORR            FAIR      -6  -9  84 CALM      30.01R
COOK           CLOUDY    -6  -9  84 CALM      30.03R
WALKER         FAIR      10   8  92 CALM      30.04S
$$
MNZ012-019>021-037-231500-
   Northeast Minnesota

CITY           SKY/WX    TMP DP  RH WIND       PRES   REMARKS
DULUTH         FAIR       3  -2  79 N12       29.95R WCI -13
ELY            FAIR      -4  -8  84 CALM      30.00R
HIBBING        FAIR      -1  -5  82 N7        30.00R WCI -14
EVELETH        FAIR       0  -6  74 CALM      30.00S
DULUTH HARBOR  CLOUDY    12   9  85 N12       30.02S WCI  -2
TWO HARBORS    FAIR       7   1  78 N3        29.96R
SILVER BAY     FAIR       7   1  78 CALM      29.95S
GRAND MARAIS     N/A     16   4  59 N13G30    29.94F WCI   2
G MARAIS ARPRT FLURRIES   7  -2  66 N13       29.90R WCI  -9
$$
MNZ029>031-032-039>041-046>048-054>057-064-231500-
   West Central Minnesota

CITY           SKY/WX    TMP DP  RH WIND       PRES   REMARKS
FERGUS FALLS   CLOUDY    19  16  86 N5        30.06S WCI  13
WHEATON        CLOUDY    21  16  79 N7        30.09S WCI  13
MORRIS         CLOUDY    21  16  79 N6        30.06R WCI  14
ALEXANDRIA     CLOUDY    19  14  81 N9        30.04R WCI   8
ELBOW LAKE     CLOUDY    19  16  85 CALM      30.06R
WADENA         CLOUDY    18  12  79 N3        30.04S
GLENWOOD       FAIR      18  16  93 N7        30.05R WCI   8
APPLETON       CLOUDY    23  18  80 N12       30.08R WCI  12
BENSON         MOCLDY    19  16  86 NE8       30.08R WCI   9
ORTONVILLE     CLOUDY    19  16  86 N9        30.07S WCI   9
MADISON        CLOUDY    25  19  80 N9        30.08R WCI  15
WILLMAR        FAIR      14  12  92 NW8       30.07R WCI   3
$$
MNZ033>034-036-042>043-049>051-058-059-231500-
   Central Minnesota

CITY           SKY/WX    TMP DP  RH WIND       PRES   REMARKS
ST CLOUD       FAIR      15  12  88 N12       30.01S WCI   2
SAUK CENTRE      N/A     13  11  90 NW6       30.04R WCI   4
PAYNESVILLE    FAIR      16  14  95 NW6       30.04R WCI   7
AITKIN         FAIR       7   3  85 NW3       30.01R
PINE RIVER     FAIR      10   9  92 N6        30.08R WCI   1
BRAINERD       FAIR      10   7  87 N8        30.03R WCI  -2
STAPLES        FAIR      10   9  92 N6        30.04S WCI   1
LONG PRAIRIE   FAIR      16  12  86 NW6       30.04R WCI   7
LITTLE FALLS   FAIR      14  10  85 NW3       30.04R
LITCHFIELD     FAIR      19  16  86 N10       30.02R WCI   8
BUFFALO        FAIR      17  12  82 NW8       30.02R WCI   6
MAPLE LAKE     FAIR      18  15  86 MISG      30.02S
HUTCHINSON     FAIR      19  15  84 NW14      30.02S WCI   6
$$
MNZ037-044-045-052-053-231500-
   East Central Minnesota

CITY           SKY/WX    TMP DP  RH WIND       PRES   REMARKS
PRINCETON      FAIR      16  10  79 NW10      30.01R WCI   3
MORA           FAIR      12   7  79 N8        30.02R WCI   1
CAMBRIDGE        N/A     16   7  67 NW6       30.01R WCI   7
RUSH CITY      CLOUDY    15   9  77 N10       30.00R WCI   2
MOOSE LAKE     FAIR       9   3  78 N5        29.99R WCI   0
HINCKLEY       CLOUDY    14   9  79 N14       30.00R WCI  -1
CLOQUET        FAIR       3  -2  78 N9G16     29.97R WCI -11
MCGREGOR       FAIR       7   3  85 N7        30.02R WCI  -5
$$
MNZ071>073-080-081-089-090-097-098-231500-
   Southwest Minnesota

CITY           SKY/WX    TMP DP  RH WIND       PRES   REMARKS
MONTEVIDEO     CLOUDY    21  18  86 N14       30.07R WCI   8
GRANITE FALLS  CLOUDY    24  19  80 NW10      30.08R WCI  14
CANBY          CLOUDY    23  20  88 W8        30.07S WCI  14
MARSHALL       CLOUDY    21  18  88 N15       30.06R WCI   8
REDWOOD FALLS  CLEAR     20  16  84 NW9       30.04R WCI   9
OLIVIA         CLEAR     18  14  86 NW7       30.04R WCI   8
PIPESTONE      CLOUDY    19  18  93 N8        30.02F WCI   9
WINDOM         CLOUDY    21   7  53 NW21      30.03R WCI   6
WORTHINGTON    CLOUDY    20  18  92 N21       30.03R WCI   4
JACKSON        CLOUDY    21  18  86 NW21      30.02R WCI   6
TRACY          CLOUDY    22  19  89 N16       30.04R WCI   8
SLAYTON        CLOUDY    20  18  92 NW12      30.04R WCI   8
$$
MNZ065>067-074>077-082>085-091>093-231500-
   South Central Minnesota

CITY           SKY/WX    TMP DP  RH WIND       PRES   REMARKS
MANKATO        FAIR      17  13  84 NW13      30.00R WCI   4
NEW ULM        CLEAR     19  14  79 NW17      30.02S WCI   4
ST JAMES       CLOUDY    19  18  93 NW13      30.04R WCI   7
FAIRMONT       CLOUDY    20  18  92 NW16      30.03R WCI   6
FARIBAULT      CLOUDY    19  16  86 NW13      29.97S WCI   7
OWATONNA       CLOUDY    19  16  86 N17       29.95R WCI   4
WASECA         CLOUDY    18  14  86 NW10      29.99R WCI   6
ALBERT LEA     CLOUDY    18  14  86 NW13G20   29.95R WCI   4
$$
MNZ078>079-086>088-094>096-231500-
   Southeast Minnesota

CITY           SKY/WX    TMP DP  RH WIND       PRES   REMARKS
ROCHESTER      CLOUDY    16  15  96 N22G31    29.91R WCI  -2
RED WING       CLOUDY    19  12  73 NW6       29.96R WCI  11
STANTON        CLOUDY    20  15  81 N13       29.96R WCI   7
DODGE CENTER   CLOUDY    18  14  86 N17       29.92R WCI   2
WINONA         CLOUDY    23  19  86 NW22      29.90R WCI   8
AUSTIN         CLOUDY    19  16  86 N14G24    29.93R WCI   6
PRESTON        CLOUDY    17  14  87 NW12      29.91R WCI   4
$$
ABBREVIATIONS USED IN REMARKS
   TC - TEMPERATURES IN CELSIUS
  WCI - WIND CHILL INDEX
   HX - HEAT INDEX
  VSB - VISIBILITY
$$




USA.gov is the U.S. government's official web portal to all federal, state and local government web resources and services.